Location: Winnipeg
(49.8830°N, 97.1670°W)
Time: 19:51:30
(UTC-06:00)

Envisat - Pass Details

Date: 06 December 2022
Orbit: 763 x 765 km, 98.2° (Epoch: 28 January)

Event Time Altitude Azimuth Distance (km) Brightness Sun altitude
Rises 04:47:18 0° 15° (NNE) 3,246 6.4 -31.8°
Reaches altitude 10° 04:49:37 10° 16° (NNE) 2,315 5.6 -31.4°
Enters shadow 04:51:39 25° 19° (NNE) 1,534 4.7 -31.1°
